Regional Weather Roundup
Issued by NWS Jackson, KY

Home | Current Version | Previous Version | Text Only | Print | Product List | Glossary On
Versions: 1 2 3 4 5 6 7 8 9 10 11 12 13 14 15 16 17 18 19 20 21 22 23 24 25 26 27 28 29 30 31 32 33 34 35 36 37 38 39 40 41 42 43 44 45 46 47 48 49 50
913
ASUS43 KJKL 130310
RWRJKL

EAST KENTUCKY HOURLY WEATHER ROUNDUP
NATIONAL WEATHER SERVICE JACKSON KY
1000 PM EST FRI FEB 12 2016

NOTE: "FAIR" INDICATES FEW OR NO CLOUDS BELOW 12,000 FEET WITH
NO SIGNIFICANT WEATHER AND/OR OBSTRUCTIONS TO VISIBILITY.

* THESE REPORTS ARE NOT UNDER NWS QUALITY CONTROL AND MAY NOT
  REPORT WEATHER SUCH AS PRECIPITATION AND FOG.

KYZ079-080-083-085-087-088-110-112-115-119-120-130400
...EASTERN KENTUCKY...

CITY           SKY/WX    TMP DP  RH WIND       PRES   REMARKS
JACKSON        CLOUDY    27  13  55 W10G24    30.17R WCI  17
LONDON         CLOUDY    28  16  60 NW14G24   30.22R WCI  17
SOMERSET*      CLOUDY    28  18  64 NW13G23   30.28R WCI  18
MONTICELLO*    FLURRIES  29  22  75 NW20      30.28R WCI  16
WILLIAMSBURG*  CLOUDY    28  23  80 W9G18     30.24R WCI  20
MIDDLESBORO*   FLURRIES  31  24  73 W13G20    30.22R WCI  21
HARLAN APT*    CLOUDY    30  23  74 SW12G17   30.17R WCI  21
HAZARD APT*    FLURRIES  25  16  68 NW15G28   30.18R WCI  12
BLACK MTN*       N/A     18  18 100 W1          N/A
BIG SANDY*     FLURRIES  27  22  80 NW8G20    30.15R WCI  19
MOREHEAD APT*  CLOUDY    27  16  63 NW20G28   30.22R WCI  13
$$

KYZ035-036-041-042-044-050-067-078-099-130400
...CENTRAL KENTUCKY...

CITY           SKY/WX    TMP DP  RH WIND       PRES   REMARKS
MT STERLING*   CLOUDY    27  19  74 NW12      30.23R WCI  16
DANVILLE*      CLOUDY    28  16  59 NW15      30.27R WCI  17
RICHMOND*      CLOUDY    27  18  69 NW15      30.24R WCI  15
LEXINGTON      FLURRIES  25  17  72 NW13G21   30.25R WCI  14
FRANKFORT      CLOUDY    26  14  60 NW14G25   30.26R WCI  14
$$

KYZ091>093-OHZ055-061-077-WVZ005-015-034-035-042-130400
...SOUTHERN OHIO/WEST VIRGINIA...

CITY           SKY/WX    TMP DP  RH WIND       PRES   REMARKS
COVINGTON      MOCLDY    22   9  57 NW17G23   30.23R WCI   8
COLUMBUS       MOCLDY    18   7  62 NW15      30.16R WCI   4
DAYTON         MOCLDY    16   7  67 NW14      30.21R WCI   2
WILMINGTON     FLURRIES  18  10  71 NW15      30.19R WCI   4
HUNTINGTON     CLOUDY    27  15  61 NW9G18    30.15R WCI  18
CHARLESTON     MOCLDY    27  18  69 W9G16     30.11R WCI  18
PINEVILLE*     LGT SNOW  27  19  73 MISG      30.11R
BECKLEY        LGT SNOW  22  17  81 W18G25    29.99R WCI   7
$$

VAZ002-007-008-TNZ017-027-036-066-071-130400
...SOUTHWEST VIRGINIA/EAST TENNESSEE...

CITY           SKY/WX    TMP DP  RH WIND       PRES   REMARKS
BRISTOL        FLURRIES  30  23  75 W12       30.14R WCI  20
KNOXVILLE      CLOUDY    34  24  67 W15       30.23R WCI  24
OAK RIDGE      CLOUDY    35  22  58 NW8       30.25R WCI  29
CROSSVILLE     CLOUDY    29  20  69 NW21G30   30.23R WCI  16
NASHVILLE      MOCLDY    33  22  63 NW16G22   30.35R WCI  23
$$

...KEY TO REMARKS...
VSB - VISIBILITY IN MILES
WCI - WIND CHILL INDEX
HX  - HEAT INDEX

$$




USA.gov is the U.S. government's official web portal to all federal, state and local government web resources and services.